Location: Caltech
(34.1382°N, 118.1253°W)
Time: 21:38:54
(UTC-07:00)

ARGOS - Visible Passes

Search period start: 26 April 2018 00:00
Search period end: 06 May 2018 00:00
Orbit: 820 x 835 km, 98.6° (Epoch: 26 April)

Date Brightness Start Highest point End Pass type
(mag) Time Alt. Az. Time Alt. Az. Time Alt. Az.
26 Apr 3.1 21:36:49 58° ESE 21:37:34 66° ENE 21:42:53 10° N visible
26 Apr 5.6 23:18:19 12° W 23:18:19 12° W 23:20:19 10° WNW visible
27 Apr 3.6 21:17:56 38° ESE 21:19:04 43° ENE 21:24:06 10° N visible
27 Apr 5.2 22:59:26 19° W 22:59:27 19° W 23:03:14 10° NW visible
28 Apr 4.1 20:59:03 25° E 21:00:37 29° ENE 21:05:10 10° N visible
28 Apr 4.6 22:40:33 29° W 22:40:44 29° W 22:45:23 10° NW visible
29 Apr 4.6 20:40:08 16° E 20:42:14 20° ENE 20:45:58 10° NNE visible
29 Apr 3.9 22:21:39 44° WSW 22:22:05 45° W 22:27:13 10° NNW visible
30 Apr 5.0 20:21:32 10° E 20:23:53 13° ENE 20:26:15 10° NE visible
30 Apr 3.2 22:02:46 61° SSW 22:03:28 69° WSW 22:08:50 10° NNW visible
01 May 3.0 21:43:53 58° SE 21:44:54 78° ENE 21:50:17 10° N visible
02 May 3.4 21:24:59 41° ESE 21:26:23 51° ENE 21:31:35 10° N visible
02 May 5.3 23:06:29 16° W 23:06:52 16° W 23:10:08 10° NW visible
03 May 3.9 21:06:05 27° ESE 21:07:56 34° ENE 21:12:43 10° N visible
03 May 4.8 22:47:36 24° WSW 22:48:09 25° W 22:52:30 10° NW visible
04 May 4.4 20:47:13 18° ESE 20:49:30 23° ENE 20:53:38 10° NNE visible
04 May 4.1 22:28:43 36° WSW 22:29:28 38° W 22:34:27 10° NNW visible
05 May 4.9 20:28:19 11° E 20:31:09 16° ENE 20:34:12 10° NNE visible
05 May 3.5 22:09:50 49° SW 22:10:50 58° W 22:16:08 10° NNW visible
